Blattenbach Aussen Messungen

Zurück zum Überblick

Zeitpunkt Temperatur Temperatur Kabelsensor Luftfeuchte
21.01.2019 04:30:38 0,0 C 2,6 C 71,0%
21.01.2019 04:23:42 0,0 C 2,6 C 70,0%
21.01.2019 04:16:41 0,0 C 2,6 C 70,0%
21.01.2019 04:09:40 0,0 C 2,6 C 70,0%
21.01.2019 04:02:40 0,0 C 2,6 C 70,0%
21.01.2019 03:55:40 0,0 C 2,6 C 69,0%
21.01.2019 03:48:39 0,0 C 2,6 C 69,0%
21.01.2019 03:41:41 0,1 C 2,6 C 69,0%
21.01.2019 03:34:39 0,2 C 2,6 C 70,0%
21.01.2019 03:27:38 0,3 C 2,6 C 69,0%
21.01.2019 03:20:39 0,4 C 2,6 C 69,0%
21.01.2019 03:13:37 0,6 C 2,6 C 69,0%
21.01.2019 03:06:40 0,6 C 2,6 C 68,0%
21.01.2019 02:59:41 0,6 C 2,6 C 69,0%
21.01.2019 02:52:41 0,6 C 2,6 C 69,0%
21.01.2019 02:45:42 0,6 C 2,6 C 69,0%
21.01.2019 02:38:40 0,6 C 2,6 C 69,0%
21.01.2019 02:31:40 0,6 C 2,6 C 69,0%
21.01.2019 02:24:42 0,7 C 2,6 C 69,0%
21.01.2019 02:17:41 0,7 C 2,6 C 69,0%
21.01.2019 02:10:38 0,7 C 2,6 C 70,0%
21.01.2019 02:03:38 0,7 C 2,6 C 69,0%
21.01.2019 01:56:40 0,7 C 2,6 C 69,0%
21.01.2019 01:49:39 0,7 C 2,7 C 69,0%
21.01.2019 01:42:41 0,8 C 2,7 C 69,0%
21.01.2019 01:35:39 0,8 C 2,7 C 69,0%
21.01.2019 01:28:40 0,7 C 2,7 C 68,0%
21.01.2019 01:21:37 0,7 C 2,7 C 68,0%
21.01.2019 01:14:42 0,8 C 2,7 C 68,0%
21.01.2019 01:07:40 0,8 C 2,7 C 68,0%
21.01.2019 01:00:39 0,8 C 2,7 C 68,0%
21.01.2019 00:53:40 0,8 C 2,7 C 68,0%
21.01.2019 00:46:42 0,8 C 2,7 C 68,0%
21.01.2019 00:39:38 0,8 C 2,7 C 68,0%
21.01.2019 00:32:42 1,0 C 2,7 C 68,0%
21.01.2019 00:25:39 1,0 C 2,7 C 69,0%
21.01.2019 00:18:39 1,0 C 2,7 C 68,0%
21.01.2019 00:11:38 1,1 C 2,7 C 67,0%
21.01.2019 00:04:40 1,1 C 2,7 C 66,0%
20.01.2019 23:57:37 1,1 C 2,7 C 66,0%
20.01.2019 23:50:24 1,1 C 2,7 C 66,0%
20.01.2019 23:43:24 1,0 C 2,7 C 67,0%
20.01.2019 23:36:27 1,0 C 2,7 C 67,0%
20.01.2019 23:29:26 1,1 C 2,7 C 68,0%
20.01.2019 23:22:25 1,0 C 2,7 C 67,0%
20.01.2019 23:15:23 0,9 C 2,7 C 67,0%
20.01.2019 23:08:25 1,0 C 2,7 C 66,0%
20.01.2019 23:01:26 1,0 C 2,7 C 66,0%
20.01.2019 22:54:21 1,0 C 2,7 C 66,0%
20.01.2019 22:47:24 1,0 C 2,7 C 65,0%